Вернуться в каталог

STARLINK-32100

АктивенСвязьVLEO
NORAD 59686·PAYLOAD·🇺🇸 United States

Запущен May 8, 2024 с Cape Canaveral Space Force Station

Loading…

Ближайшие Пролёты (ближайшие 24 часа)

TLE

СвежийSource: CelesTrak SupGP

Эпоха: Sep 15, 2026, 03:16 UTC

1 59686C 24086E   26258.13659722 -.00038452  00000+0 -13928-2 0  2588
2 59686  43.0043  51.8957 0001525 268.8850  34.4224 15.27596128    11

Отслеживайте STARLINK-32100 в реальном времени с AllMySat

Download on the App Store